Location: Bannatyne
(13.0833°N, 59.5333°W)
Time: 15:35:35
(UTC+00:00)

Vanguard 3 - Pass Details

Date: 25 January 2020
Orbit: 508 x 3263 km, 33.3° (Epoch: 23 February)

Event Time Altitude Azimuth Distance (km) Brightness Sun altitude
Rises 15:27:57 0° 187° (S) 4,835 11.6 56.3°
Reaches altitude 10° 15:33:03 10° 165° (SSE) 4,405 11.6 56.6°
Maximum altitude 15:39:33 15° 134° (SE) 4,592 11.7 57.0°
Drops below altitude 10° 15:47:30 10° 104° (ESE) 5,619 11.7 57.4°
Sets 15:55:42 0° 86° (E) 7,044 12.0 57.7°
